ETD615R OEJN-OMAA

Flight info

Callsign ETD615R
Flight time 2h 4m
Altitude 33000
Route EGREP T532 KODIS Y214 RAPMA DCT KUVSO DCT RIBOT M550 GOLGU M318 ATUDO
Aircraft A321/M-SDE3FGHIRWY/LB1

Departure

Time 2026-05-05 12:34
Airport King Abdulaziz International Airport (OEJN)

Arrival

Time 2026-05-05 14:38
Airport Zayed International Airport (OMAA)
Time Latitude Longitude Altitude Speed Heading
2026-05-05 12:10 21.67355 39.17220 32 ft 0 kts 137°
2026-05-05 12:21 21.67365 39.17209 31 ft 4 kts 137°
2026-05-05 12:21 21.67385 39.17189 31 ft 4 kts 137°
2026-05-05 12:21 21.67402 39.17172 30 ft 4 kts 141°
2026-05-05 12:21 21.67424 39.17162 29 ft 4 kts 195°
2026-05-05 12:22 21.67443 39.17173 31 ft 1 kts 220°
2026-05-05 12:22 21.67444 39.17174 31 ft 0 kts 220°
2026-05-05 12:24 21.67444 39.17173 32 ft 0 kts 220°
2026-05-05 12:25 21.67415 39.17148 32 ft 13 kts 220°
2026-05-05 12:25 21.67344 39.17077 32 ft 14 kts 222°
2026-05-05 12:25 21.67278 39.17002 32 ft 14 kts 230°
2026-05-05 12:25 21.67228 39.16912 33 ft 14 kts 250°
2026-05-05 12:26 21.67224 39.16814 32 ft 13 kts 300°
2026-05-05 12:26 21.67301 39.16776 32 ft 12 kts 347°
2026-05-05 12:26 21.67384 39.16752 32 ft 12 kts 343°
2026-05-05 12:26 21.67467 39.16727 32 ft 12 kts 344°
2026-05-05 12:27 21.67560 39.16693 32 ft 16 kts 341°
2026-05-05 12:27 21.67644 39.16632 32 ft 14 kts 287°
2026-05-05 12:27 21.67622 39.16531 31 ft 14 kts 251°
2026-05-05 12:27 21.67583 39.16414 31 ft 20 kts 249°
2026-05-05 12:28 21.67536 39.16286 30 ft 15 kts 237°
2026-05-05 12:28 21.67442 39.16269 30 ft 14 kts 162°
2026-05-05 12:28 21.67349 39.16306 31 ft 14 kts 160°
2026-05-05 12:28 21.67255 39.16343 32 ft 14 kts 158°
2026-05-05 12:29 21.67161 39.16379 32 ft 14 kts 159°
2026-05-05 12:29 21.67069 39.16417 33 ft 14 kts 159°
2026-05-05 12:29 21.66978 39.16451 33 ft 14 kts 160°
2026-05-05 12:29 21.66885 39.16488 34 ft 14 kts 160°
2026-05-05 12:30 21.66790 39.16526 34 ft 14 kts 159°
2026-05-05 12:30 21.66697 39.16565 34 ft 14 kts 159°
2026-05-05 12:30 21.66601 39.16599 35 ft 14 kts 160°
2026-05-05 12:30 21.66507 39.16638 35 ft 15 kts 159°
2026-05-05 12:31 21.66413 39.16677 35 ft 13 kts 159°
2026-05-05 12:31 21.66341 39.16704 35 ft 12 kts 162°
2026-05-05 12:31 21.66265 39.16728 36 ft 8 kts 168°
2026-05-05 12:31 21.66228 39.16716 36 ft 6 kts 211°
2026-05-05 12:32 21.66200 39.16682 36 ft 6 kts 241°
2026-05-05 12:32 21.66183 39.16632 35 ft 9 kts 250°
2026-05-05 12:32 21.66159 39.16559 34 ft 11 kts 251°
2026-05-05 12:32 21.66149 39.16484 34 ft 9 kts 300°
2026-05-05 12:33 21.66203 39.16452 33 ft 9 kts 341°
2026-05-05 12:33 21.66293 39.16418 34 ft 32 kts 340°
2026-05-05 12:33 21.66714 39.16253 36 ft 94 kts 340°
2026-05-05 12:33 21.67499 39.15946 32 ft 144 kts 340°
2026-05-05 12:34 21.68179 39.15677 45 ft 169 kts 339°
2026-05-05 12:34 21.69290 39.15264 657 ft 161 kts 340°
2026-05-05 12:34 21.70342 39.14912 1341 ft 158 kts 343°
2026-05-05 12:34 21.71387 39.14588 1850 ft 159 kts 342°
2026-05-05 12:35 21.72483 39.14158 2012 ft 177 kts 340°
2026-05-05 12:35 21.73689 39.13657 2143 ft 194 kts 342°
2026-05-05 12:35 21.75084 39.13631 2272 ft 214 kts 14°
2026-05-05 12:35 21.76408 39.14548 2366 ft 241 kts 36°
2026-05-05 12:36 21.77698 39.15781 2692 ft 253 kts 38°
2026-05-05 12:36 21.79006 39.17072 3148 ft 258 kts 40°
2026-05-05 12:36 21.80332 39.18388 3704 ft 261 kts 40°
2026-05-05 12:36 21.81678 39.19724 4143 ft 266 kts 41°
2026-05-05 12:37 21.83061 39.21090 4576 ft 273 kts 41°
2026-05-05 12:37 21.84481 39.22486 5012 ft 279 kts 40°
2026-05-05 12:37 21.85926 39.23905 5482 ft 283 kts 40°
2026-05-05 12:37 21.87390 39.25340 5987 ft 286 kts 40°
2026-05-05 12:38 21.88867 39.26786 6461 ft 289 kts 40°
2026-05-05 12:38 21.90362 39.28253 6935 ft 293 kts 40°
2026-05-05 12:38 21.91873 39.29735 7400 ft 295 kts 41°
2026-05-05 12:38 21.93402 39.31232 7870 ft 300 kts 41°
2026-05-05 12:39 21.94955 39.32752 8319 ft 304 kts 40°
2026-05-05 12:39 21.96528 39.34292 8818 ft 307 kts 41°
2026-05-05 12:39 21.98108 39.35842 9364 ft 309 kts 41°
2026-05-05 12:39 21.99710 39.37417 9806 ft 314 kts 42°
2026-05-05 12:40 22.01337 39.39012 10116 ft 324 kts 42°
2026-05-05 12:40 22.03047 39.40686 10247 ft 340 kts 42°
2026-05-05 12:40 22.04842 39.42444 10373 ft 357 kts 41°
2026-05-05 12:40 22.06718 39.44284 10477 ft 372 kts 41°
2026-05-05 12:41 22.08671 39.46202 10591 ft 387 kts 41°
2026-05-05 12:41 22.10693 39.48186 10771 ft 398 kts 42°
2026-05-05 12:41 22.12750 39.50206 11135 ft 404 kts 42°
2026-05-05 12:41 22.14842 39.52263 11510 ft 408 kts 42°
2026-05-05 12:42 22.16944 39.54332 11977 ft 411 kts 42°
2026-05-05 12:42 22.19066 39.56419 12392 ft 415 kts 42°
2026-05-05 12:42 22.21174 39.58496 12884 ft 416 kts 42°
2026-05-05 12:42 22.23321 39.60614 13335 ft 420 kts 42°
2026-05-05 12:43 22.25483 39.62745 13809 ft 422 kts 43°
2026-05-05 12:43 22.27659 39.64891 14234 ft 426 kts 42°
2026-05-05 12:43 22.29856 39.67062 14672 ft 428 kts 43°
2026-05-05 12:43 22.32056 39.69236 15110 ft 431 kts 42°
2026-05-05 12:44 22.34278 39.71430 15533 ft 434 kts 42°
2026-05-05 12:44 22.36515 39.73638 15985 ft 436 kts 42°
2026-05-05 12:44 22.38763 39.75856 16400 ft 440 kts 42°
2026-05-05 12:44 22.41027 39.78088 16887 ft 441 kts 42°
2026-05-05 12:45 22.43304 39.80335 17297 ft 445 kts 42°
2026-05-05 12:45 22.45602 39.82605 17716 ft 448 kts 42°
2026-05-05 12:45 22.47921 39.84888 18128 ft 452 kts 42°
2026-05-05 12:45 22.50265 39.87153 18560 ft 453 kts 41°
2026-05-05 12:46 22.52638 39.89415 18954 ft 455 kts 41°
2026-05-05 12:46 22.55025 39.91677 19309 ft 458 kts 41°
2026-05-05 12:46 22.57427 39.93950 19647 ft 460 kts 41°
2026-05-05 12:46 22.59837 39.96236 19997 ft 463 kts 41°
2026-05-05 12:47 22.62228 39.98512 20318 ft 465 kts 41°
2026-05-05 12:47 22.64657 40.00835 20646 ft 468 kts 41°
2026-05-05 12:47 22.67103 40.03178 20969 ft 470 kts 41°
2026-05-05 12:47 22.69558 40.05529 21287 ft 472 kts 40°
2026-05-05 12:48 22.72028 40.07893 21607 ft 475 kts 40°
2026-05-05 12:48 22.74515 40.10271 21897 ft 478 kts 40°
2026-05-05 12:48 22.77012 40.12661 22196 ft 480 kts 40°
2026-05-05 12:48 22.79520 40.15065 22478 ft 482 kts 40°
2026-05-05 12:49 22.82039 40.17482 22767 ft 485 kts 40°
2026-05-05 12:49 22.84568 40.19913 23053 ft 487 kts 40°
2026-05-05 12:49 22.87110 40.22359 23327 ft 490 kts 40°
2026-05-05 12:49 22.89667 40.24819 23614 ft 492 kts 40°
2026-05-05 12:50 22.92235 40.27286 23830 ft 495 kts 40°
2026-05-05 12:50 22.94819 40.29769 24042 ft 498 kts 40°
2026-05-05 12:50 22.97420 40.32273 24248 ft 500 kts 40°
2026-05-05 12:50 23.00028 40.34787 24465 ft 503 kts 40°
2026-05-05 12:51 23.02645 40.37314 24685 ft 505 kts 40°
2026-05-05 12:51 23.05280 40.39858 24895 ft 507 kts 40°
2026-05-05 12:51 23.07923 40.42411 25110 ft 509 kts 39°
2026-05-05 12:51 23.10577 40.44972 25315 ft 512 kts 39°
2026-05-05 12:52 23.13248 40.47546 25501 ft 514 kts 39°
2026-05-05 12:52 23.15904 40.50102 25698 ft 517 kts 39°
2026-05-05 12:52 23.18595 40.52696 25916 ft 519 kts 39°
2026-05-05 12:52 23.21295 40.55307 26117 ft 521 kts 39°
2026-05-05 12:53 23.23987 40.57960 26332 ft 524 kts 43°
2026-05-05 12:53 23.26404 40.60937 26544 ft 528 kts 52°
2026-05-05 12:53 23.28422 40.64302 26762 ft 532 kts 61°
2026-05-05 12:53 23.29978 40.67953 27013 ft 532 kts 69°
2026-05-05 12:54 23.32602 40.75506 27578 ft 534 kts 70°
2026-05-05 12:54 23.33919 40.79282 27857 ft 534 kts 70°
2026-05-05 12:54 23.35235 40.83062 28142 ft 535 kts 70°
2026-05-05 12:55 23.36553 40.86852 28424 ft 535 kts 70°
2026-05-05 12:55 23.37854 40.90600 28700 ft 536 kts 70°
2026-05-05 12:55 23.39179 40.94440 29008 ft 535 kts 70°
2026-05-05 12:55 23.40485 40.98231 29324 ft 535 kts 70°
2026-05-05 12:56 23.41792 41.02029 29551 ft 536 kts 70°
2026-05-05 12:56 23.43083 41.05782 29809 ft 537 kts 70°
2026-05-05 12:56 23.44400 41.09604 30057 ft 538 kts 70°
2026-05-05 12:56 23.45717 41.13414 30260 ft 538 kts 70°
2026-05-05 12:57 23.47039 41.17239 30534 ft 537 kts 70°
2026-05-05 12:57 23.48356 41.21055 30789 ft 537 kts 70°
2026-05-05 12:57 23.49667 41.24862 31024 ft 537 kts 70°
2026-05-05 12:57 23.50975 41.28668 31235 ft 537 kts 70°
2026-05-05 12:58 23.52283 41.32486 31481 ft 537 kts 70°
2026-05-05 12:58 23.53587 41.36299 31716 ft 537 kts 70°
2026-05-05 12:58 23.54895 41.40123 31903 ft 538 kts 70°
2026-05-05 12:58 23.56201 41.43938 32125 ft 538 kts 70°
2026-05-05 12:59 23.57497 41.47713 32343 ft 538 kts 70°
2026-05-05 12:59 23.58806 41.51525 32568 ft 538 kts 70°
2026-05-05 12:59 23.60111 41.55344 32803 ft 538 kts 70°
2026-05-05 13:00 23.62710 41.62995 32956 ft 538 kts 70°
2026-05-05 13:00 23.64014 41.66836 32952 ft 538 kts 70°
2026-05-05 13:01 23.67279 41.76460 32946 ft 540 kts 70°
2026-05-05 13:01 23.69799 41.84173 32948 ft 539 kts 72°
2026-05-05 13:02 23.72211 41.91876 32950 ft 539 kts 72°
2026-05-05 13:02 23.74637 41.99629 32946 ft 539 kts 71°
2026-05-05 13:03 23.77187 42.07317 32963 ft 538 kts 70°
2026-05-05 13:03 23.79861 42.14948 32970 ft 538 kts 69°
2026-05-05 13:04 23.82525 42.22575 32969 ft 537 kts 70°
2026-05-05 13:04 23.85134 42.30224 32978 ft 537 kts 70°
2026-05-05 13:05 23.87711 42.37875 32982 ft 536 kts 70°
2026-05-05 13:05 23.90285 42.45531 32983 ft 536 kts 70°
2026-05-05 13:06 23.92863 42.53131 32978 ft 537 kts 70°
2026-05-05 13:06 23.95471 42.60792 32971 ft 537 kts 70°
2026-05-05 13:07 23.98053 42.68457 32971 ft 537 kts 70°
2026-05-05 13:07 24.00623 42.76120 32975 ft 537 kts 70°
2026-05-05 13:08 24.02931 42.83868 32976 ft 535 kts 81°
2026-05-05 13:08 24.03385 42.91913 32967 ft 527 kts 99°
2026-05-05 13:09 24.01882 42.99646 32961 ft 517 kts 112°
2026-05-05 13:09 23.99821 43.07203 32954 ft 518 kts 112°
2026-05-05 13:10 23.97762 43.14754 32956 ft 519 kts 112°
2026-05-05 13:10 23.95697 43.22319 32961 ft 519 kts 112°
2026-05-05 13:11 23.93645 43.29842 32957 ft 519 kts 111°
2026-05-05 13:11 23.91582 43.37417 32963 ft 519 kts 112°
2026-05-05 13:12 23.89503 43.44978 32953 ft 519 kts 112°
2026-05-05 13:12 23.87419 43.52535 32949 ft 519 kts 111°
2026-05-05 13:13 23.85341 43.60105 32938 ft 519 kts 111°
2026-05-05 13:13 23.83263 43.67656 32931 ft 519 kts 111°
2026-05-05 13:14 23.81175 43.75196 32931 ft 518 kts 111°
2026-05-05 13:14 23.79081 43.82736 32931 ft 518 kts 111°
2026-05-05 13:15 23.77310 43.90368 32913 ft 523 kts 100°
2026-05-05 13:15 23.76712 43.98241 32907 ft 524 kts 98°
2026-05-05 13:16 23.76118 44.06171 32898 ft 523 kts 98°
2026-05-05 13:16 23.75513 44.14084 32896 ft 523 kts 98°
2026-05-05 13:17 23.74914 44.22004 32899 ft 523 kts 98°
2026-05-05 13:17 23.74316 44.29926 32886 ft 523 kts 98°
2026-05-05 13:18 23.73718 44.37837 32887 ft 523 kts 98°
2026-05-05 13:18 23.73112 44.45749 32886 ft 523 kts 98°
2026-05-05 13:19 23.72605 44.52313 32893 ft 522 kts 98°
2026-05-05 13:19 23.71993 44.60211 32904 ft 522 kts 98°
2026-05-05 13:20 23.71371 44.68086 32891 ft 521 kts 98°
2026-05-05 13:20 23.70748 44.75951 32882 ft 520 kts 98°
2026-05-05 13:21 23.70131 44.83810 32886 ft 519 kts 98°
2026-05-05 13:21 23.69507 44.91611 32872 ft 519 kts 98°
2026-05-05 13:22 23.68877 44.99457 32881 ft 519 kts 98°
2026-05-05 13:22 23.68240 45.07311 32858 ft 519 kts 98°
2026-05-05 13:23 23.67596 45.15144 32852 ft 518 kts 98°
2026-05-05 13:23 23.66954 45.22977 32833 ft 521 kts 98°
2026-05-05 13:24 23.66301 45.30926 32820 ft 529 kts 98°
2026-05-05 13:24 23.65639 45.38985 32812 ft 536 kts 98°
2026-05-05 13:25 23.64959 45.47107 32804 ft 539 kts 98°
2026-05-05 13:25 23.64270 45.55260 32784 ft 539 kts 98°
2026-05-05 13:26 23.63585 45.63379 32796 ft 537 kts 98°
2026-05-05 13:26 23.62907 45.71485 32806 ft 537 kts 98°
2026-05-05 13:27 23.62218 45.79538 32786 ft 536 kts 98°
2026-05-05 13:27 23.61516 45.87629 32784 ft 536 kts 98°
2026-05-05 13:28 23.60816 45.95724 32791 ft 536 kts 98°
2026-05-05 13:28 23.60113 46.03827 32791 ft 536 kts 98°
2026-05-05 13:29 23.59397 46.11918 32790 ft 536 kts 98°
2026-05-05 13:29 23.58676 46.20023 32803 ft 537 kts 98°
2026-05-05 13:30 23.57957 46.28135 32805 ft 537 kts 98°
2026-05-05 13:30 23.57237 46.36253 32817 ft 538 kts 98°
2026-05-05 13:31 23.56505 46.44377 32814 ft 539 kts 98°
2026-05-05 13:31 23.55768 46.52507 32813 ft 539 kts 98°
2026-05-05 13:32 23.55032 46.60645 32805 ft 539 kts 98°
2026-05-05 13:32 23.54284 46.68776 32811 ft 539 kts 98°
2026-05-05 13:33 23.53535 46.76841 32811 ft 538 kts 98°
2026-05-05 13:33 23.52786 46.84949 32799 ft 538 kts 98°
2026-05-05 13:34 23.52033 46.93056 32799 ft 537 kts 98°
2026-05-05 13:34 23.51276 47.01158 32771 ft 538 kts 98°
2026-05-05 13:35 23.50516 47.09260 32767 ft 538 kts 98°
2026-05-05 13:35 23.49751 47.17368 32765 ft 538 kts 98°
2026-05-05 13:36 23.48976 47.25472 32776 ft 537 kts 98°
2026-05-05 13:36 23.48197 47.33552 32750 ft 535 kts 98°
2026-05-05 13:37 23.47420 47.41599 32749 ft 534 kts 98°
2026-05-05 13:37 23.46648 47.49588 32751 ft 534 kts 98°
2026-05-05 13:38 23.45869 47.57625 32750 ft 533 kts 98°
2026-05-05 13:38 23.45085 47.65652 32755 ft 533 kts 99°
2026-05-05 13:39 23.44296 47.73668 32748 ft 531 kts 98°
2026-05-05 13:39 23.43509 47.81661 32746 ft 531 kts 98°
2026-05-05 13:40 23.42723 47.89643 32745 ft 530 kts 98°
2026-05-05 13:40 23.41926 47.97619 32740 ft 530 kts 99°
2026-05-05 13:41 23.41123 48.05608 32741 ft 530 kts 99°
2026-05-05 13:41 23.40318 48.13595 32739 ft 530 kts 99°
2026-05-05 13:42 23.39512 48.21569 32736 ft 530 kts 99°
2026-05-05 13:42 23.38701 48.29526 32736 ft 528 kts 99°
2026-05-05 13:43 23.37951 48.37490 32746 ft 529 kts 96°
2026-05-05 13:43 23.37599 48.45493 32753 ft 531 kts 94°
2026-05-05 13:44 23.37429 48.53525 32750 ft 531 kts 94°
2026-05-05 13:44 23.37173 48.61559 32752 ft 531 kts 95°
2026-05-05 13:45 23.36815 48.69584 32749 ft 531 kts 95°
2026-05-05 13:45 23.36450 48.77599 32746 ft 531 kts 95°
2026-05-05 13:46 23.36109 48.85624 32743 ft 531 kts 95°
2026-05-05 13:46 23.35770 48.93648 32741 ft 530 kts 95°
2026-05-05 13:47 23.35427 49.01666 32745 ft 530 kts 95°
2026-05-05 13:47 23.35064 49.09678 32745 ft 530 kts 95°
2026-05-05 13:48 23.34650 49.17631 32748 ft 530 kts 95°
2026-05-05 13:48 23.34207 49.25682 32744 ft 530 kts 95°
2026-05-05 13:49 23.33784 49.33629 32739 ft 530 kts 95°
2026-05-05 13:49 23.33365 49.41631 32738 ft 530 kts 95°
2026-05-05 13:50 23.32940 49.49682 32738 ft 530 kts 95°
2026-05-05 13:50 23.32514 49.57631 32750 ft 530 kts 95°
2026-05-05 13:51 23.32078 49.65679 32748 ft 529 kts 95°
2026-05-05 13:51 23.31629 49.73667 32750 ft 529 kts 95°
2026-05-05 13:52 23.31187 49.81597 32754 ft 529 kts 95°
2026-05-05 13:52 23.30740 49.89580 32750 ft 529 kts 95°
2026-05-05 13:53 23.30283 49.97564 32754 ft 529 kts 95°
2026-05-05 13:53 23.29830 50.05544 32751 ft 528 kts 95°
2026-05-05 13:54 23.29373 50.13519 32746 ft 528 kts 95°
2026-05-05 13:54 23.28907 50.21491 32753 ft 528 kts 95°
2026-05-05 13:55 23.28448 50.29453 32718 ft 525 kts 95°
2026-05-05 13:55 23.27982 50.37362 32724 ft 523 kts 95°
2026-05-05 13:56 23.27503 50.45263 32731 ft 524 kts 95°
2026-05-05 13:56 23.27015 50.53171 32730 ft 524 kts 95°
2026-05-05 13:57 23.26536 50.61078 32733 ft 524 kts 95°
2026-05-05 13:57 23.26061 50.68985 32735 ft 524 kts 95°
2026-05-05 13:58 23.25576 50.76901 32734 ft 524 kts 95°
2026-05-05 13:58 23.25074 50.84805 32739 ft 525 kts 95°
2026-05-05 13:59 23.24322 50.96688 32750 ft 525 kts 95°
2026-05-05 14:00 23.23650 51.07224 32758 ft 525 kts 95°
2026-05-05 14:00 23.23061 51.16467 32761 ft 524 kts 95°
2026-05-05 14:01 23.22558 51.24373 32760 ft 524 kts 95°
2026-05-05 14:01 23.22045 51.32224 32759 ft 524 kts 95°
2026-05-05 14:02 23.21522 51.40129 32759 ft 524 kts 95°
2026-05-05 14:02 23.20999 51.48025 32760 ft 524 kts 95°
2026-05-05 14:03 23.20470 51.55928 32760 ft 523 kts 95°
2026-05-05 14:03 23.20024 51.62485 32760 ft 523 kts 95°
2026-05-05 14:04 23.19397 51.71705 32764 ft 523 kts 95°
2026-05-05 14:04 23.18952 51.78259 32765 ft 522 kts 95°
2026-05-05 14:05 23.18423 51.86125 32765 ft 522 kts 95°
2026-05-05 14:05 23.17888 51.93998 32761 ft 522 kts 95°
2026-05-05 14:06 23.17337 52.01861 32763 ft 522 kts 95°
2026-05-05 14:06 23.16777 52.09727 32766 ft 522 kts 95°
2026-05-05 14:07 23.16223 52.17579 32747 ft 521 kts 95°
2026-05-05 14:07 23.15670 52.25427 32745 ft 521 kts 95°
2026-05-05 14:08 23.15108 52.33229 32744 ft 521 kts 95°
2026-05-05 14:08 23.15107 52.41077 32742 ft 521 kts 81°
2026-05-05 14:09 23.17065 52.48648 32750 ft 521 kts 70°
2026-05-05 14:09 23.20082 52.55784 32755 ft 520 kts 59°
2026-05-05 14:10 23.23629 52.62648 32762 ft 521 kts 59°
2026-05-05 14:10 23.27180 52.69527 32762 ft 522 kts 59°
2026-05-05 14:11 23.30726 52.76411 32764 ft 522 kts 59°
2026-05-05 14:11 23.34264 52.83304 32773 ft 522 kts 59°
2026-05-05 14:12 23.37783 52.90161 32755 ft 521 kts 59°
2026-05-05 14:12 23.41306 52.97044 32754 ft 520 kts 59°
2026-05-05 14:13 23.44912 53.03869 32755 ft 520 kts 58°
2026-05-05 14:13 23.48586 53.10651 32755 ft 519 kts 58°
2026-05-05 14:14 23.52246 53.17437 32759 ft 519 kts 58°
2026-05-05 14:14 23.55875 53.24256 32767 ft 520 kts 58°
2026-05-05 14:15 23.59485 53.31091 32763 ft 517 kts 58°
2026-05-05 14:15 23.61256 53.34436 32761 ft 503 kts 58°
2026-05-05 14:15 23.62997 53.37721 32755 ft 499 kts 58°
2026-05-05 14:16 23.64737 53.40997 32522 ft 498 kts 58°
2026-05-05 14:16 23.66470 53.44258 32286 ft 497 kts 58°
2026-05-05 14:16 23.68204 53.47522 32036 ft 497 kts 58°
2026-05-05 14:16 23.69930 53.50783 31795 ft 497 kts 58°
2026-05-05 14:17 23.71641 53.54010 31559 ft 497 kts 58°
2026-05-05 14:17 23.73373 53.57268 31330 ft 498 kts 58°
2026-05-05 14:17 23.75121 53.60546 31087 ft 498 kts 58°
2026-05-05 14:17 23.76867 53.63812 30855 ft 499 kts 58°
2026-05-05 14:18 23.78616 53.67090 30628 ft 500 kts 58°
2026-05-05 14:18 23.80364 53.70370 30404 ft 500 kts 58°
2026-05-05 14:18 23.82112 53.73652 30066 ft 500 kts 58°
2026-05-05 14:18 23.83870 53.76954 29122 ft 504 kts 58°
2026-05-05 14:19 23.85643 53.80285 28073 ft 509 kts 58°
2026-05-05 14:19 23.87406 53.83650 26915 ft 513 kts 62°
2026-05-05 14:19 23.88721 53.87234 25600 ft 503 kts 70°
2026-05-05 14:19 23.89817 53.90816 24391 ft 491 kts 70°
2026-05-05 14:20 23.90878 53.94315 23251 ft 478 kts 70°
2026-05-05 14:20 23.91909 53.97725 21951 ft 466 kts 70°
2026-05-05 14:20 23.92910 54.01037 20740 ft 453 kts 70°
2026-05-05 14:20 23.93888 54.04269 19603 ft 441 kts 71°
2026-05-05 14:21 23.94840 54.07414 18540 ft 429 kts 71°
2026-05-05 14:21 23.95768 54.10475 17455 ft 419 kts 71°
2026-05-05 14:21 23.96673 54.13445 16699 ft 403 kts 70°
2026-05-05 14:21 23.97528 54.16262 16225 ft 389 kts 71°
2026-05-05 14:22 23.98380 54.19070 15730 ft 388 kts 71°
2026-05-05 14:22 23.99225 54.21858 15223 ft 385 kts 71°
2026-05-05 14:22 24.00065 54.24636 14711 ft 384 kts 70°
2026-05-05 14:22 24.00900 54.27405 14181 ft 383 kts 70°
2026-05-05 14:23 24.01733 54.30163 13651 ft 381 kts 71°
2026-05-05 14:23 24.02563 54.32914 13060 ft 380 kts 71°
2026-05-05 14:23 24.03388 54.35645 12545 ft 376 kts 71°
2026-05-05 14:23 24.04194 54.38329 12207 ft 369 kts 70°
2026-05-05 14:24 24.04990 54.40991 11660 ft 367 kts 71°
2026-05-05 14:24 24.05782 54.43633 11111 ft 365 kts 70°
2026-05-05 14:24 24.06564 54.46232 10914 ft 352 kts 70°
2026-05-05 14:24 24.07313 54.48727 10789 ft 338 kts 71°
2026-05-05 14:25 24.08032 54.51123 10667 ft 325 kts 71°
2026-05-05 14:25 24.08724 54.53431 10562 ft 313 kts 71°
2026-05-05 14:25 24.09392 54.55658 10386 ft 304 kts 71°
2026-05-05 14:25 24.10041 54.57828 10257 ft 297 kts 71°
2026-05-05 14:26 24.10685 54.59979 10138 ft 297 kts 71°
2026-05-05 14:26 24.11327 54.62128 10008 ft 297 kts 71°
2026-05-05 14:26 24.11973 54.64291 9618 ft 301 kts 70°
2026-05-05 14:26 24.12624 54.66452 9331 ft 296 kts 70°
2026-05-05 14:27 24.13264 54.68587 8930 ft 296 kts 70°
2026-05-05 14:27 24.13907 54.70732 8528 ft 295 kts 70°
2026-05-05 14:27 24.14536 54.72833 8114 ft 291 kts 69°
2026-05-05 14:27 24.15161 54.74929 7380 ft 289 kts 69°
2026-05-05 14:28 24.15776 54.76999 6842 ft 284 kts 71°
2026-05-05 14:28 24.16386 54.79053 6388 ft 283 kts 71°
2026-05-05 14:28 24.16999 54.81113 5938 ft 287 kts 70°
2026-05-05 14:28 24.17615 54.83183 5559 ft 286 kts 71°
2026-05-05 14:29 24.18230 54.85255 5215 ft 284 kts 71°
2026-05-05 14:29 24.18833 54.87295 4717 ft 279 kts 71°
2026-05-05 14:29 24.19419 54.89278 4340 ft 263 kts 71°
2026-05-05 14:29 24.19967 54.91129 4282 ft 252 kts 70°
2026-05-05 14:30 24.20537 54.92942 4180 ft 252 kts 62°
2026-05-05 14:30 24.21652 54.94332 4073 ft 239 kts 28°
2026-05-05 14:30 24.23190 54.94780 3947 ft 228 kts 357°
2026-05-05 14:30 24.24670 54.94273 3636 ft 224 kts 324°
2026-05-05 14:31 24.25727 54.93042 3357 ft 221 kts 309°
2026-05-05 14:31 24.26669 54.91707 3079 ft 222 kts 308°
2026-05-05 14:31 24.27618 54.90369 2800 ft 222 kts 309°
2026-05-05 14:31 24.28570 54.89033 2535 ft 221 kts 310°
2026-05-05 14:32 24.29511 54.87714 2253 ft 220 kts 309°
2026-05-05 14:32 24.30414 54.86447 2071 ft 198 kts 309°
2026-05-05 14:32 24.31200 54.85343 2015 ft 171 kts 310°
2026-05-05 14:32 24.31908 54.84352 1999 ft 161 kts 310°
2026-05-05 14:33 24.32575 54.83415 2025 ft 152 kts 311°
2026-05-05 14:33 24.33217 54.82515 2003 ft 149 kts 312°
2026-05-05 14:33 24.33854 54.81622 1992 ft 149 kts 310°
2026-05-05 14:33 24.34490 54.80730 1999 ft 148 kts 310°
2026-05-05 14:34 24.35125 54.79838 1997 ft 149 kts 311°
2026-05-05 14:34 24.35764 54.78941 1998 ft 151 kts 309°
2026-05-05 14:34 24.36423 54.78016 2009 ft 154 kts 308°
2026-05-05 14:34 24.37078 54.77096 2003 ft 153 kts 309°
2026-05-05 14:35 24.37731 54.76178 1958 ft 151 kts 311°
2026-05-05 14:35 24.38371 54.75278 1818 ft 150 kts 310°
2026-05-05 14:35 24.39014 54.74375 1644 ft 151 kts 309°
2026-05-05 14:35 24.39655 54.73472 1457 ft 148 kts 309°
2026-05-05 14:36 24.40288 54.72583 1290 ft 147 kts 310°
2026-05-05 14:36 24.40908 54.71711 1100 ft 144 kts 310°
2026-05-05 14:36 24.41530 54.70834 907 ft 146 kts 309°
2026-05-05 14:36 24.42094 54.69984 721 ft 145 kts 305°
2026-05-05 14:37 24.42751 54.69080 568 ft 142 kts 309°
2026-05-05 14:37 24.43376 54.68215 393 ft 146 kts 309°
2026-05-05 14:37 24.43994 54.67362 207 ft 142 kts 311°
2026-05-05 14:37 24.44589 54.66520 83 ft 130 kts 310°
2026-05-05 14:38 24.45064 54.65862 68 ft 86 kts 308°
2026-05-05 14:38 24.45313 54.65509 67 ft 32 kts 308°
2026-05-05 14:38 24.45405 54.65303 65 ft 29 kts 285°
2026-05-05 14:38 24.45436 54.65090 67 ft 26 kts 280°
2026-05-05 14:39 24.45476 54.64957 69 ft 17 kts 283°
2026-05-05 14:39 24.45456 54.64850 75 ft 15 kts 287°
2026-05-05 14:39 24.45515 54.64758 71 ft 15 kts 308°
2026-05-05 14:39 24.45575 54.64661 73 ft 15 kts 281°
2026-05-05 14:40 24.45514 54.64568 65 ft 16 kts 219°
2026-05-05 14:40 24.45423 54.64491 70 ft 17 kts 217°
2026-05-05 14:40 24.45339 54.64433 73 ft 11 kts 214°
2026-05-05 14:40 24.45278 54.64378 70 ft 8 kts 219°
2026-05-05 14:41 24.45259 54.64361 67 ft 0 kts 219°